RH
7 7 7 8 8 9 9 10 11 12 13 15 15 16 15 14 12 9 7 6 7 8 9 9 9 9 9 8 8 8 7 7 7 6 6 6 4 5 6 7 8 7 6 4 4 6 8 9 10 12 13 11 9 7 6 5 5 5 5 5 5 6 6 6 7 7 6 6 6 5 4 4 3 4
10 11 11 10 11 11 12 12 12 12 13 13 14 15 14 13 12 9 6 7 8 10 11 10 10 9 9 9 8 8 8 7 8 7 6 6 5 6 8 10 11 10 7 5 7 13 17 17 19 19 20 20 18 15 11 8 6 5 5 5 5 5 5 5 5 6 6 5 6 5 4 5 3 2
15 15 16 17 18 19 20 20 19 18 18 17 17 16 15 13 11 8 6 7 9 11 12 11 10 10 9 9 9 8 8 8 8 7 6 6 7 9 11 13 14 11 8 10 19 29 33 33 33 33 32 32 30 27 23 17 12 8 6 5 5 4 4 5 5 4 5 5 4 5 4 4 4 3
24 23 23 26 28 30 31 31 30 29 26 24 21 18 16 14 11 8 6 7 10 12 13 12 11 10 10 9 9 8 9 8 8 8 8 9 10 11 15 17 15 12 12 21 39 51 53 51 51 49 48 46 43 39 34 29 23 16 11 7 5 5 4 4 5 4 4 5 4 4 4 3 4 3
38 35 35 38 43 47 46 44 43 41 36 31 26 21 18 15 11 9 7 7 11 12 13 13 11 11 10 10 9 9 9 8 8 10 11 13 14 15 19 19 16 14 18 35 60 74 72 68 67 66 64 60 56 51 44 38 33 26 20 14 9 7 6 4 5 4 3 4 4 3 4 3 3 4
50 48 49 54 63 69 65 59 56 52 45 37 29 23 19 16 13 9 8 9 11 13 15 13 12 12 11 10 10 9 9 9 10 13 15 16 18 20 22 20 17 18 26 47 75 88 85 80 79 79 77 73 67 60 53 46 41 37 31 25 19 13 10 8 5 5 4 3 4 3 3 3 2 3
54 54 57 66 81 87 80 73 68 60 52 42 31 24 19 16 14 11 10 10 11 14 16 14 13 12 11 11 10 10 10 10 12 16 18 18 20 22 23 21 21 23 33 57 83 93 90 86 85 86 85 81 73 66 61 53 46 43 38 33 28 21 17 14 9 6 5 3 4 3 2 3 2 2
48 53 59 71 87 94 88 80 72 63 54 44 33 25 18 16 14 12 11 11 12 16 16 15 14 13 12 12 10 11 11 13 16 18 19 20 21 23 23 23 27 29 40 67 89 94 93 90 87 87 85 80 74 67 60 52 46 44 40 36 33 26 22 19 13 10 8 5 4 3 2 3 3 2
41 48 58 70 82 91 90 81 69 58 49 40 33 25 18 16 15 13 13 11 13 17 17 16 15 13 14 12 11 13 13 16 20 21 21 22 23 24 24 29 34 37 53 78 91 93 95 94 89 85 82 76 69 63 55 48 44 41 38 35 32 28 24 21 17 14 11 8 6 4 3 3 2 2
35 42 54 66 77 85 88 81 65 51 40 32 28 23 19 17 16 14 13 11 14 18 18 17 16 15 15 13 13 15 17 22 24 23 24 24 24 25 30 36 39 48 70 88 91 92 96 95 88 82 78 70 63 58 52 46 41 37 34 31 29 28 25 22 19 16 13 11 8 4 3 3 2 2
29 36 47 62 74 79 83 81 66 47 34 26 22 21 19 18 17 16 13 12 15 19 19 18 17 17 16 14 17 20 24 27 27 26 25 23 26 32 39 44 45 58 84 95 93 95 96 92 85 78 72 65 58 54 48 42 38 33 30 29 27 26 22 19 18 14 12 10 6 6 8 8 7 4
22 28 39 56 71 76 78 81 70 48 32 25 21 20 20 19 18 16 13 13 17 19 20 19 18 18 16 16 21 26 31 32 31 29 24 27 38 43 49 57 56 64 87 97 96 96 92 86 80 72 66 59 53 50 44 40 35 30 29 26 24 23 18 15 12 9 14 13 8 18 29 29 27 25
18 21 28 43 65 75 75 79 75 55 34 25 22 21 20 20 19 17 14 15 18 20 20 19 20 19 17 19 25 32 36 35 34 30 26 42 60 58 61 73 72 73 87 96 98 92 85 82 75 66 61 54 50 47 42 38 32 28 27 22 20 19 11 10 12 19 38 42 33 44 56 56 59 65
18 18 20 30 54 75 76 74 76 63 41 27 23 22 21 21 20 17 14 15 19 21 20 21 22 20 20 24 27 34 39 39 39 32 31 59 82 75 74 82 83 87 94 97 95 86 79 77 70 63 58 51 47 42 38 34 27 24 23 16 16 13 5 17 38 53 76 78 64 66 66 66 82 88
17 17 18 21 40 68 78 74 72 67 49 31 25 24 21 21 22 18 15 17 19 21 22 24 24 22 25 29 28 34 41 42 41 35 39 70 94 89 86 87 87 96 100 94 90 84 79 73 63 58 55 48 41 35 30 27 21 18 17 12 11 7 8 39 70 83 97 94 80 77 69 70 98 96
16 16 17 17 28 57 78 78 72 67 56 39 29 26 22 21 23 19 15 17 20 22 23 26 28 28 32 31 28 35 44 45 44 39 45 75 99 100 98 93 90 96 97 89 85 81 76 68 59 53 47 40 33 26 22 20 16 14 11 8 8 1 16 62 90 94 101 98 88 85 76 79 104 102
16 15 17 15 19 43 68 78 76 70 61 47 34 28 24 22 23 21 17 16 20 23 24 29 33 35 35 31 28 36 45 49 47 39 45 76 101 105 103 98 93 94 93 87 81 75 67 60 52 44 36 29 23 18 17 13 12 11 6 7 5 -1 27 80 101 97 100 100 95 92 87 90 102 102
16 15 16 15 15 29 50 69 80 76 64 53 41 32 27 24 23 23 18 15 19 23 24 31 37 36 31 26 29 38 46 52 51 38 43 77 103 105 103 101 96 93 91 84 76 67 57 48 39 31 23 19 15 13 13 10 10 8 4 7 3 3 45 93 102 98 100 99 100 98 94 99 100 100
16 15 15 14 15 20 33 57 82 84 67 56 47 37 30 25 24 25 21 15 18 22 24 30 32 28 24 23 31 43 48 54 55 40 43 79 106 105 101 99 94 90 86 78 67 55 44 35 26 20 16 14 12 12 10 8 9 6 4 7 -0 11 64 102 99 99 102 96 99 100 96 101 101 98
15 15 15 14 15 16 23 48 81 91 75 60 52 42 34 28 25 27 24 16 16 20 23 28 26 22 23 27 37 47 50 56 56 41 46 83 106 103 99 96 91 86 77 65 52 38 29 24 19 16 15 13 12 11 9 8 8 6 6 6 1 26 81 106 97 99 102 96 98 100 96 100 102 98
14 14 14 14 14 15 21 43 76 93 84 67 56 47 38 30 27 29 26 19 15 16 19 24 23 21 22 29 40 49 51 58 57 42 50 87 106 102 98 94 87 80 66 49 35 26 20 19 16 16 15 13 12 11 9 10 8 7 9 5 6 44 92 104 98 100 100 97 99 99 97 100 101 100
13 14 14 14 14 15 20 35 63 88 90 75 61 52 41 32 29 30 27 21 16 15 16 18 19 19 20 26 40 49 53 63 59 42 51 88 106 101 97 92 83 72 53 36 26 21 19 19 17 17 15 13 13 12 10 11 8 8 14 9 14 59 99 101 98 101 98 97 100 98 99 101 99 100
13 13 13 14 13 15 19 27 50 81 95 84 67 55 44 35 32 31 28 22 16 15 15 14 15 17 17 25 41 51 60 70 60 40 54 92 106 98 94 89 77 60 40 28 24 21 20 20 17 17 16 13 15 13 10 12 10 9 19 20 24 65 102 101 97 103 98 97 101 99 99 101 100 101
12 12 13 13 14 16 17 22 42 75 96 92 75 60 48 39 35 32 27 21 16 15 15 13 14 14 15 26 43 53 66 76 59 40 60 98 106 97 92 86 69 49 32 26 25 21 21 21 18 17 16 14 15 15 11 13 12 10 22 31 36 66 100 102 97 103 101 98 100 100 100 101 100 99
11 12 12 12 13 16 17 20 38 70 95 96 82 66 53 44 38 32 26 21 17 15 14 14 14 13 18 34 50 61 76 80 57 41 65 100 106 98 93 83 62 41 30 27 26 23 21 20 17 16 16 15 15 15 13 14 14 11 21 37 45 65 94 103 99 100 101 99 100 100 100 100 100 98
10 11 12 13 13 15 16 19 36 68 93 97 86 73 59 47 38 31 25 21 17 15 16 16 14 16 29 48 62 74 88 83 54 42 68 99 105 98 92 79 56 37 31 29 26 23 21 19 18 17 17 16 17 16 15 15 15 12 18 34 49 64 85 99 101 101 100 99 100 101 100 99 99 98
11 11 11 12 14 15 15 18 34 65 92 97 89 78 63 48 39 31 25 21 18 16 16 15 15 25 43 61 73 85 94 82 52 42 68 98 105 99 91 75 52 36 33 31 25 23 22 21 20 20 18 18 18 18 17 16 17 16 16 27 45 60 76 90 98 101 100 99 100 101 100 100 100 99
10 11 11 12 14 15 15 19 35 65 90 98 91 79 64 49 39 30 24 21 18 16 16 17 24 39 57 71 82 91 94 80 52 46 73 101 105 98 90 74 51 36 34 31 25 23 23 22 22 21 20 19 18 17 17 17 19 19 17 21 36 53 69 82 91 97 99 99 101 102 101 102 102 100
9 10 11 12 14 15 15 20 38 66 89 97 91 79 64 50 38 29 24 21 18 16 18 25 37 52 65 75 84 90 91 78 54 51 79 104 104 98 90 73 51 36 32 30 26 24 24 24 24 23 21 20 17 15 15 16 17 17 17 18 26 41 59 75 87 94 99 99 99 102 102 101 101 100
9 10 11 12 14 15 15 22 41 67 88 95 90 78 63 49 37 29 23 20 17 17 25 39 53 62 65 72 83 93 94 78 54 53 81 103 103 98 92 76 54 36 30 30 28 25 26 25 24 24 23 20 17 14 13 13 13 13 14 15 19 29 45 64 80 90 98 101 101 102 103 101 99 100
11 12 12 13 14 15 16 26 46 69 86 92 87 76 61 48 36 28 21 18 18 25 38 53 59 57 56 68 87 99 97 77 54 57 84 103 102 98 92 79 58 38 31 31 29 26 27 26 24 25 25 20 16 13 11 11 11 12 12 12 14 21 33 52 69 79 87 97 102 103 101 100 99 99
15 14 13 14 15 15 18 29 49 70 84 88 83 71 58 46 34 24 19 16 18 28 39 48 51 52 62 82 100 104 96 76 57 63 88 103 103 98 93 82 63 42 32 32 29 27 27 25 24 27 26 19 15 12 10 11 12 12 13 12 12 16 25 42 59 68 75 88 97 100 100 100 100 100
16 15 14 14 15 16 20 32 52 71 80 82 77 65 53 42 31 21 16 18 26 39 48 53 60 72 86 100 106 103 94 76 61 70 91 103 102 98 92 82 66 47 34 31 29 27 27 24 25 29 26 18 13 11 11 12 12 12 13 12 11 12 17 29 46 59 69 81 91 97 99 100 100 100
16 14 14 15 16 18 22 34 52 68 74 72 67 57 45 34 25 18 21 34 51 64 70 73 82 94 102 105 106 103 92 75 66 77 95 103 101 97 90 81 67 51 38 32 28 27 26 24 27 31 26 15 12 12 12 12 13 13 13 13 12 11 12 18 29 44 59 72 83 90 95 97 99 99
15 15 15 16 18 19 24 37 55 68 70 64 55 46 36 27 22 25 40 61 78 85 87 89 94 101 104 105 106 103 89 73 73 86 99 102 100 96 88 78 67 55 42 33 28 26 25 24 29 31 24 13 12 13 12 12 13 13 12 13 12 11 11 12 18 28 42 57 69 78 86 93 96 98
15 16 16 17 18 20 28 45 62 70 67 57 46 38 30 23 29 49 71 86 94 96 98 99 101 101 101 103 106 102 87 75 81 96 103 102 99 94 85 75 66 57 45 34 27 25 24 26 32 32 21 12 12 13 13 13 13 12 12 12 12 11 11 10 12 17 27 40 53 63 73 82 90 95
16 17 18 18 21 25 36 53 66 69 64 52 40 34 27 25 43 72 91 98 102 103 102 101 101 100 100 102 105 101 88 81 89 101 105 102 98 92 82 71 64 58 48 35 29 26 25 30 35 32 20 13 13 13 13 13 13 12 12 12 11 11 11 10 10 12 17 26 37 48 58 67 78 86
16 17 18 20 24 33 45 57 63 64 59 47 37 32 28 35 62 89 97 97 101 102 98 98 100 101 100 102 104 100 91 88 96 104 104 101 96 88 79 69 63 58 50 39 32 28 28 34 38 32 20 13 13 13 13 13 12 12 12 12 11 11 11 11 10 10 11 16 23 32 42 51 61 71
17 17 19 23 29 38 47 54 59 61 57 48 41 39 39 51 78 97 99 99 101 101 98 98 100 101 100 102 104 100 94 95 100 104 103 100 94 85 76 69 62 58 53 46 39 34 36 41 40 31 19 14 14 14 13 12 12 12 12 11 11 11 11 11 11 10 9 11 14 19 27 35 44 55
16 17 19 24 30 37 45 50 54 57 56 52 51 52 55 68 86 97 99 101 101 100 99 101 101 100 100 102 103 100 97 99 102 102 102 100 94 85 77 69 63 60 58 56 52 48 46 46 40 30 21 18 18 16 13 12 12 12 12 11 11 11 11 11 12 12 11 10 10 12 16 22 29 38
16 18 21 25 29 34 40 44 46 49 50 51 54 57 64 77 89 96 100 102 100 97 99 101 101 100 100 102 103 101 100 101 102 102 102 100 95 87 79 72 69 67 67 68 67 62 55 48 41 33 27 24 22 18 15 13 12 11 12 12 11 11 11 11 11 13 13 11 10 10 11 13 18 23
15 16 18 22 25 28 32 36 38 40 43 45 49 57 68 81 91 95 97 98 96 94 97 101 101 99 100 103 103 100 100 102 103 102 103 101 97 91 84 79 78 78 77 76 75 70 62 53 43 36 31 30 28 24 18 14 13 12 13 13 12 11 11 11 12 13 14 13 12 10 9 10 12 14
15 16 18 20 22 26 29 32 34 37 40 44 50 60 72 84 92 95 96 95 94 94 98 101 101 99 101 104 103 100 100 102 103 103 104 103 99 96 92 88 88 87 84 81 80 77 71 62 51 43 38 36 34 28 20 16 15 14 14 15 14 12 11 11 13 14 15 15 14 13 11 10 10 10
19 17 16 18 21 25 30 35 40 46 50 55 63 72 81 88 95 99 100 99 98 98 100 102 101 100 101 104 104 101 101 102 103 105 105 103 101 101 100 98 95 92 88 86 85 84 79 71 63 55 48 44 39 31 23 20 20 18 17 17 17 16 14 14 14 16 17 17 16 15 13 12 11 10
54 46 39 36 36 39 44 49 56 64 68 72 80 89 94 97 100 101 101 100 100 100 100 100 101 102 103 103 103 102 100 102 104 106 105 102 100 103 105 104 100 96 93 92 90 86 80 74 68 62 56 52 47 38 31 29 28 26 23 22 21 20 19 18 18 19 20 19 18 17 15 13 12 10
Wind_Speed
98 98 98 98 97 97 96 96 95 94 93 92 91 89 87 86 83 82 81 79 78 77 75 73 71 70 69 70 70 70 70 71 71 72 71 71 71 71 72 73 72 72 73 75 76 76 76 77 78 80 82 85 88 92 95 98 99 100 100 100 100 100 100 99 97 96 95 95 94 94 93 91 89 88
90 91 91 92 91 91 92 92 92 92 91 91 90 89 87 86 84 82 81 78 76 75 73 71 70 69 68 68 68 69 69 70 70 70 70 70 70 70 70 71 71 70 72 73 73 74 73 74 75 77 79 80 83 86 89 92 95 96 98 99 100 100 101 100 98 98 97 97 96 96 95 93 91 90
83 83 84 84 85 85 86 86 87 87 87 87 87 87 86 85 83 82 81 77 74 73 71 69 68 67 66 66 66 67 68 69 69 69 69 68 68 68 68 69 69 69 70 71 71 71 71 71 72 74 75 77 79 81 83 86 88 91 93 95 98 99 99 99 99 99 99 98 98 97 96 95 93 91
75 75 76 77 78 79 80 80 81 82 83 83 84 84 84 83 82 80 79 75 72 71 69 67 67 66 65 65 64 65 66 68 68 67 66 66 66 66 66 67 68 68 68 68 68 69 69 69 70 71 73 74 76 77 79 81 83 85 88 90 93 94 96 97 98 99 100 99 100 99 98 98 96 94
66 67 67 68 70 72 73 74 75 76 77 79 80 80 81 80 79 78 76 73 70 69 68 65 65 65 64 63 63 63 64 65 66 65 63 62 62 63 64 65 66 67 67 66 66 66 67 67 68 69 70 72 73 74 75 77 78 80 82 84 86 89 91 93 96 98 99 100 100 101 100 99 98 96
60 60 60 60 62 64 66 67 69 70 72 74 75 76 77 76 76 75 73 71 69 67 65 63 63 63 62 62 61 61 62 63 63 62 60 59 59 60 62 64 65 65 65 64 64 64 64 65 66 67 68 69 71 72 73 74 75 76 77 79 80 83 85 88 91 94 97 98 99 101 101 100 100 98
58 57 55 55 57 58 60 61 63 65 67 68 69 71 72 72 72 71 70 69 67 65 63 61 61 61 60 59 59 60 60 60 60 59 58 58 57 57 60 62 63 64 64 63 62 62 62 62 64 64 66 67 68 69 70 71 72 72 73 74 76 77 79 82 86 88 91 93 95 99 99 99 100 99
58 56 54 53 54 55 56 57 59 61 62 63 64 65 67 68 68 68 68 66 64 62 61 59 59 59 58 57 57 58 58 58 57 56 56 56 55 55 57 60 61 63 63 62 61 60 60 60 61 62 63 65 66 67 68 68 69 70 71 72 73 74 75 77 80 82 83 86 89 93 95 95 98 98
59 57 55 54 53 53 54 55 57 58 59 60 60 61 63 64 64 65 65 64 62 60 58 57 57 56 55 55 55 56 56 56 54 53 53 54 53 53 55 57 60 61 61 60 59 59 58 58 59 60 61 62 63 64 65 66 67 68 69 71 72 72 73 75 77 77 77 79 82 85 87 88 92 96
61 58 57 55 53 52 53 54 56 57 57 58 58 58 59 60 61 62 62 61 60 58 57 56 55 54 53 53 54 54 54 53 52 51 51 51 51 51 53 56 58 60 59 58 58 57 56 56 57 57 58 59 60 61 62 63 65 66 68 70 71 72 73 75 76 74 73 74 75 76 79 82 87 91
63 60 58 56 54 53 52 54 55 56 56 57 57 57 58 58 59 59 60 60 58 57 55 54 53 52 51 52 52 52 52 50 49 50 49 49 49 50 52 54 57 58 58 57 57 57 55 54 54 55 55 56 57 58 59 61 63 65 67 69 70 71 72 72 73 72 70 70 70 70 72 76 79 82
65 63 60 57 55 54 53 53 55 55 56 56 55 56 57 57 56 57 58 58 57 56 54 53 52 50 50 51 51 50 49 48 47 48 47 46 47 49 50 52 55 56 56 55 56 55 53 52 51 52 52 53 53 55 57 60 62 64 66 67 68 69 69 69 69 68 67 68 68 65 63 66 68 70
67 65 62 59 57 56 54 53 54 55 55 55 54 54 56 55 55 55 56 57 57 55 53 52 51 49 49 50 49 48 48 47 46 45 44 43 46 47 48 50 52 54 54 53 54 53 51 51 50 49 49 50 52 54 57 59 61 63 63 64 65 66 65 65 67 66 67 69 67 60 57 60 62 64
67 65 64 61 58 57 55 53 54 55 55 55 54 53 54 54 54 55 55 56 56 55 53 51 50 49 49 49 48 47 47 46 44 43 41 42 45 46 47 48 49 50 51 52 51 51 50 50 49 47 47 49 51 54 57 59 60 60 60 61 62 63 63 65 68 68 69 72 66 58 58 61 61 63
69 66 65 63 61 59 57 54 53 54 55 54 53 52 52 52 53 54 55 56 56 55 52 51 50 49 49 48 47 46 46 45 43 42 40 42 44 45 46 47 47 47 49 50 49 48 49 49 48 47 47 49 52 54 56 57 57 56 57 58 60 61 63 68 72 72 72 72 67 61 62 62 62 64
69 68 66 65 62 60 58 55 53 54 54 54 53 51 51 51 51 52 54 55 56 55 52 51 50 49 49 48 46 45 45 44 42 40 40 41 43 43 44 46 45 45 47 48 48 47 47 47 47 47 48 50 52 53 54 54 53 53 55 57 58 60 65 72 75 74 73 72 70 66 65 64 64 64
70 68 67 66 64 62 61 57 54 53 54 53 52 51 50 50 50 51 53 54 55 54 52 51 50 50 49 48 46 44 43 42 41 40 40 41 41 41 43 44 44 44 46 47 46 46 46 46 46 47 48 49 50 51 51 51 50 51 53 55 58 61 67 76 78 74 74 74 72 69 66 66 68 66
71 69 68 67 64 63 63 59 54 53 53 52 52 51 50 49 49 51 52 53 54 54 53 52 51 51 50 48 47 44 42 41 41 40 39 40 41 41 41 42 43 44 45 45 44 44 44 44 45 46 47 47 48 48 48 48 48 49 51 54 57 62 72 81 79 73 73 75 73 71 68 69 71 68
71 69 68 67 65 64 64 60 55 53 53 52 51 51 50 49 49 50 51 52 53 54 53 53 53 51 49 48 47 44 42 42 41 39 38 40 41 40 41 41 42 43 43 43 43 42 43 43 44 44 44 44 45 45 45 45 46 47 50 52 56 64 77 85 79 72 73 75 74 72 70 71 74 69
72 70 68 66 66 65 64 60 56 54 53 52 50 50 50 50 49 49 50 51 52 53 53 54 53 50 48 47 46 44 43 42 41 38 37 40 41 40 40 40 41 42 42 41 41 40 41 42 41 41 41 41 42 42 42 43 43 45 48 51 55 66 81 86 80 75 75 74 73 74 73 72 77 74
73 71 68 66 65 64 63 61 57 54 53 52 50 50 50 50 49 49 50 50 50 51 53 53 52 49 48 47 45 44 44 42 40 37 37 40 40 39 39 39 40 40 39 38 38 38 39 40 39 39 39 39 40 40 40 41 41 42 46 49 54 69 84 85 80 77 77 76 72 74 76 73 77 81
73 71 67 65 64 63 62 62 59 55 53 52 50 49 49 49 49 48 49 49 50 50 51 51 50 48 47 46 45 44 43 41 39 37 38 39 39 38 38 39 39 39 38 36 36 37 37 37 37 37 37 37 38 39 39 39 39 39 43 46 53 70 84 83 77 75 77 78 72 69 75 76 75 81
71 69 66 64 63 62 62 62 59 55 53 51 49 49 49 48 48 48 49 49 49 49 49 49 48 47 46 45 44 44 42 41 39 37 37 39 39 37 37 38 38 37 35 34 35 35 35 35 35 35 36 36 37 38 38 38 37 36 39 44 53 71 83 80 75 72 73 79 76 67 68 74 72 71
68 67 66 64 62 61 62 62 59 54 52 51 49 49 49 48 49 49 49 49 48 48 48 48 47 46 46 45 44 43 42 40 39 37 37 38 38 37 37 37 37 35 33 33 33 34 34 34 34 34 35 35 35 36 36 36 35 34 36 41 51 69 82 79 74 70 68 73 78 71 65 67 67 63
66 65 65 64 61 60 61 61 58 54 52 51 49 48 49 49 50 50 49 48 48 47 47 46 46 45 44 44 43 42 41 40 38 36 37 38 38 37 37 37 35 34 33 32 32 32 32 32 32 32 33 33 32 33 33 34 34 33 34 39 49 66 82 83 77 72 67 65 71 73 69 66 64 61
63 64 64 62 61 60 61 61 57 54 52 50 48 49 50 50 50 49 48 47 46 45 45 45 45 44 43 42 42 42 41 40 37 36 37 38 37 37 36 36 35 33 31 31 31 31 31 31 31 31 30 30 28 28 30 31 31 31 33 37 46 62 78 85 84 80 74 67 66 69 70 68 65 62
61 62 62 61 60 60 61 59 56 54 52 50 49 49 50 49 49 48 47 46 45 44 44 44 43 43 42 42 42 42 41 40 37 35 37 38 37 37 36 35 34 32 31 32 32 32 32 31 30 29 27 26 25 24 26 28 27 29 31 35 43 57 70 79 84 84 81 74 69 67 67 67 65 63
59 60 60 59 59 59 59 58 56 54 52 50 49 50 50 49 48 47 46 45 44 43 43 43 43 42 42 42 43 43 41 39 36 35 37 38 38 37 36 35 33 32 32 34 33 33 33 31 29 27 25 24 24 23 23 25 25 26 29 33 40 51 62 70 77 81 81 77 73 70 67 64 64 63
56 57 57 57 57 57 57 57 56 54 51 50 50 49 48 47 46 46 45 44 43 43 43 43 42 42 42 42 43 42 40 37 35 35 37 39 38 37 36 35 34 34 34 35 35 34 33 30 27 26 25 24 24 23 22 24 24 24 26 31 37 45 54 62 70 76 78 76 75 75 73 67 64 62
51 52 54 56 56 56 56 56 55 52 50 49 49 48 47 46 45 44 44 43 43 43 43 43 42 42 42 42 42 41 38 36 35 35 37 39 38 37 36 36 36 36 36 36 36 34 32 30 28 26 25 24 24 23 23 23 23 23 24 28 35 42 48 56 65 72 76 76 74 75 75 72 67 63
45 48 51 53 55 55 55 55 53 51 49 48 48 46 45 44 44 44 43 43 44 44 43 43 42 42 42 42 41 40 38 37 36 35 37 39 38 37 36 36 37 37 36 36 35 34 32 30 28 26 25 24 23 22 23 22 21 21 21 23 31 41 48 54 62 70 75 78 76 74 72 72 70 66
42 45 49 52 54 54 54 53 52 49 48 47 46 45 44 43 43 43 44 45 45 44 43 43 42 41 41 41 40 39 38 37 35 35 37 38 38 36 36 36 37 37 37 36 36 34 32 30 27 25 25 24 23 22 22 20 18 16 16 16 23 36 47 55 62 69 75 79 79 77 74 72 71 69
42 45 48 51 51 51 51 51 49 47 46 45 44 43 43 42 42 43 44 44 43 43 42 41 40 40 40 39 39 38 38 36 35 35 37 38 37 36 36 36 37 38 37 36 35 33 31 28 26 26 25 24 23 22 21 19 16 14 13 11 14 25 40 52 60 68 75 78 79 80 78 75 73 72
41 44 47 48 48 48 49 49 47 46 44 43 43 42 42 41 42 43 43 42 42 41 40 39 39 39 39 38 38 38 37 35 35 36 37 37 37 36 35 35 37 37 37 36 34 32 30 28 27 27 26 24 23 23 21 19 17 14 11 10 10 15 28 42 53 62 70 75 76 78 78 77 75 74
40 42 44 45 45 46 47 46 45 44 43 42 41 41 41 41 41 42 41 41 40 39 38 38 38 38 38 38 38 37 36 35 35 36 37 37 36 35 34 34 36 36 36 35 34 32 30 28 27 27 27 26 25 25 22 19 17 14 12 10 9 10 17 30 43 53 62 69 72 74 76 78 78 77
39 41 41 42 42 44 45 44 44 43 42 41 40 40 40 41 41 40 39 39 39 38 38 38 38 38 37 37 37 36 35 35 35 36 36 36 35 35 34 33 34 35 35 34 33 32 30 28 28 28 28 28 27 26 24 20 18 16 14 12 10 9 10 18 30 43 54 62 67 70 73 76 78 78
37 39 40 40 41 43 43 43 42 42 41 40 40 40 40 40 40 40 40 40 39 39 39 39 39 38 37 36 36 36 35 35 35 36 36 36 36 35 33 32 33 34 35 34 33 32 30 29 28 29 30 30 29 27 25 22 19 17 16 14 12 10 9 10 18 30 42 53 61 67 70 74 77 79
36 37 38 39 41 42 41 41 40 40 40 40 40 40 41 40 40 40 40 40 40 40 40 40 40 38 37 36 36 36 35 35 35 36 35 35 35 34 32 31 32 33 34 34 33 32 30 29 29 30 31 31 30 28 25 23 21 19 18 17 15 13 11 10 12 18 28 39 50 59 66 70 75 78
34 35 37 39 40 40 40 40 39 39 39 40 40 40 41 40 39 39 39 39 39 40 40 41 40 38 37 36 36 35 35 35 35 35 35 35 35 33 31 31 32 33 33 33 32 31 30 30 30 32 32 31 29 27 26 25 23 21 20 19 18 16 14 13 11 13 18 26 36 47 56 64 70 75
31 33 35 37 38 39 39 39 39 39 39 39 39 40 40 39 38 39 40 40 40 41 41 41 40 38 37 37 36 36 35 35 35 35 35 35 33 32 30 30 31 33 33 32 31 30 31 31 32 32 32 29 27 26 27 26 25 24 22 21 20 19 17 16 14 13 13 17 24 34 44 53 61 69
30 31 34 35 35 36 37 37 37 37 38 38 39 38 38 37 37 39 40 42 42 43 43 42 40 38 37 37 37 36 36 35 35 35 35 34 32 31 30 30 31 32 32 31 30 30 31 32 32 31 29 27 26 27 28 28 27 26 24 22 22 20 19 18 18 16 15 14 17 23 31 40 49 58
28 30 32 33 33 33 34 34 34 35 35 36 37 37 37 36 37 39 41 43 44 45 44 42 40 39 38 37 37 36 36 36 36 35 34 33 31 30 30 30 31 32 31 30 30 30 30 30 30 29 27 27 27 28 29 29 28 26 25 24 23 22 21 20 20 19 18 17 16 18 21 27 35 45
25 27 29 31 31 31 32 32 32 33 34 34 35 35 36 36 37 39 41 44 45 45 45 43 41 40 39 38 37 37 36 36 36 35 34 32 31 31 31 31 31 31 31 30 30 29 29 28 28 28 27 27 28 29 30 29 28 27 25 24 24 23 22 22 21 21 21 20 19 19 18 19 24 32
22 24 26 28 28 29 29 30 31 31 32 32 33 33 35 37 38 40 42 44 46 46 44 43 42 40 39 39 38 38 37 37 36 35 33 32 32 31 31 31 31 31 31 30 29 28 28 27 27 27 26 27 28 30 30 28 27 27 26 25 24 24 24 23 23 23 23 22 22 21 20 19 21 24
20 21 22 23 24 25 26 27 28 29 30 31 31 33 35 37 39 40 42 44 46 46 44 43 41 40 40 40 39 39 38 37 36 35 33 33 32 32 32 31 31 31 30 29 29 28 27 27 26 26 26 26 27 28 28 26 26 26 26 26 26 25 25 25 24 24 24 24 24 23 23 22 22 22
Wind_Direction
267 266 265 265 264 263 263 262 262 261 261 260 260 259 258 257 256 255 254 254 254 255 256 258 259 260 262 265 267 269 270 271 271 270 269 267 265 263 261 260 258 256 253 250 248 246 245 244 244 243 243 241 241 240 240 240 240 240 241 241 241 241 241 240 240 239 239 239 238 237 236 235 235 235
267 266 265 264 263 262 261 261 260 259 259 258 257 257 256 255 254 253 251 251 251 253 254 255 257 258 260 263 266 269 271 272 272 271 269 268 265 263 260 258 257 255 252 249 247 245 244 243 243 243 242 242 241 240 240 240 240 240 240 241 241 241 241 241 241 240 240 240 239 238 236 235 234 234
267 266 265 264 262 261 260 259 258 258 257 256 256 255 254 253 253 251 250 248 248 250 252 253 255 257 259 262 266 269 272 273 272 271 270 268 266 263 259 256 254 252 249 247 245 244 243 243 242 242 241 241 241 240 240 240 240 240 240 240 241 241 242 242 242 242 241 241 240 239 238 236 235 234
267 266 265 264 262 261 259 258 257 257 256 256 255 254 253 252 251 250 249 247 246 247 249 251 254 256 259 262 266 269 271 272 272 271 270 268 266 263 258 254 252 250 247 245 244 243 242 242 241 241 241 240 240 240 239 239 239 240 240 240 241 241 242 242 242 242 242 242 242 241 239 237 236 234
267 267 265 264 262 261 259 258 257 256 256 255 255 254 253 252 251 250 248 246 244 244 246 249 252 256 259 262 265 268 271 272 272 271 270 269 266 262 257 253 250 247 245 243 242 242 241 241 241 241 240 240 240 239 239 239 239 239 239 240 240 240 241 242 242 243 243 243 243 242 241 239 237 235
267 267 266 265 262 261 259 258 257 256 256 255 254 254 253 252 251 249 247 245 243 243 245 247 250 254 258 262 265 268 270 271 271 271 271 269 266 261 256 252 249 246 243 242 241 241 241 241 241 241 241 240 240 239 239 238 238 238 238 239 239 239 240 241 242 242 243 243 243 243 242 241 239 237
267 267 267 266 263 261 259 258 257 256 256 255 254 254 253 252 251 249 246 244 242 241 243 246 250 254 258 261 265 268 270 270 270 270 271 270 265 259 254 251 248 245 242 241 241 242 241 241 241 241 241 240 239 239 238 237 237 237 237 238 238 238 239 240 241 241 242 243 243 243 242 242 241 239
265 265 266 265 263 261 259 258 257 257 257 256 255 253 252 251 250 248 245 243 241 240 242 246 249 253 257 261 265 267 269 269 269 271 272 270 265 258 253 249 247 244 241 240 241 242 242 242 241 241 240 240 239 238 238 237 236 236 237 237 238 238 238 239 240 240 241 241 242 242 242 242 241 240
263 263 264 263 262 261 259 257 256 256 256 256 255 254 252 251 249 247 245 242 240 240 241 244 249 252 256 260 264 266 267 268 270 272 272 270 264 257 251 248 245 243 241 240 241 242 242 242 241 241 240 239 239 238 238 237 236 236 236 237 237 237 237 239 240 239 239 240 240 241 240 240 240 239
260 260 261 261 261 260 258 256 255 255 255 255 255 254 253 251 249 246 243 241 239 239 240 243 248 251 255 259 262 264 266 268 271 273 272 268 261 255 250 246 244 241 240 241 241 241 242 242 241 240 239 239 239 239 238 237 236 236 236 236 237 237 238 239 240 239 238 239 239 238 237 236 236 237
258 258 258 258 259 258 257 255 255 254 254 254 254 254 253 251 249 246 242 240 238 239 240 243 247 250 254 258 261 262 265 268 271 273 271 265 257 251 248 245 242 239 239 241 241 241 242 242 241 240 240 239 240 240 239 238 237 236 237 237 237 238 238 239 239 238 237 238 237 235 234 233 233 234
256 255 255 255 256 256 255 254 254 253 253 253 252 252 252 251 249 246 242 239 237 238 240 243 246 249 253 257 259 260 263 267 271 273 271 261 253 249 246 244 241 238 239 241 241 242 242 243 242 241 240 240 240 240 240 238 238 238 238 239 239 238 237 237 237 236 235 235 234 232 231 230 229 229
254 254 253 253 253 254 253 252 253 253 252 252 252 251 251 250 248 245 241 238 237 237 239 242 245 248 252 255 257 258 261 265 271 274 268 255 249 247 245 243 241 239 239 241 241 242 243 244 244 242 241 241 240 241 240 239 239 239 239 239 239 238 235 233 232 231 230 232 231 229 227 226 223 221
252 252 252 251 251 252 252 250 251 252 252 252 251 250 250 249 247 244 240 237 236 237 239 241 244 248 251 254 256 257 259 263 270 274 265 250 246 246 243 241 240 239 240 241 241 242 243 244 245 243 242 241 241 241 240 240 241 241 241 239 237 236 232 227 225 224 225 227 228 227 224 222 222 220
250 249 249 250 249 249 250 249 248 249 250 251 250 249 248 247 245 243 239 237 236 236 238 240 243 247 250 253 255 257 258 261 268 272 261 248 244 244 242 240 239 239 241 241 241 242 243 244 244 243 243 242 241 242 242 243 243 242 241 238 236 233 226 220 219 218 219 223 225 225 222 219 222 223
247 247 247 247 247 247 248 247 246 247 248 249 249 248 247 245 244 242 239 236 236 236 237 239 243 246 248 252 254 256 258 260 265 269 259 247 243 243 241 240 238 239 241 241 241 242 243 244 243 242 242 242 243 244 244 245 244 242 241 237 234 231 222 215 214 215 215 219 222 224 223 219 218 220
245 245 245 245 244 245 246 245 244 244 246 247 248 247 246 243 242 240 238 236 236 236 237 239 242 245 247 251 253 255 257 259 263 266 258 247 243 242 240 239 239 239 240 241 242 242 243 243 242 242 242 243 244 245 245 246 245 242 240 236 232 228 218 211 211 211 211 215 219 221 222 220 216 215
244 243 243 243 242 242 243 244 243 242 244 245 246 246 245 242 241 239 238 236 236 236 237 239 241 244 247 250 252 253 256 258 260 264 258 247 242 241 239 239 239 239 240 241 241 241 241 242 242 242 243 243 244 245 246 246 244 242 239 236 232 224 213 208 207 207 208 213 217 218 219 219 215 211
242 241 240 241 240 240 241 242 241 241 242 243 244 244 243 241 240 239 238 236 235 236 237 239 241 244 247 250 251 252 255 256 258 262 257 246 241 241 239 238 239 239 239 240 240 240 240 241 242 243 243 244 244 245 246 245 244 243 240 236 231 221 209 205 205 204 206 212 216 216 215 215 213 208
238 239 238 238 238 238 239 240 240 239 240 241 242 242 241 240 239 238 238 236 235 236 237 239 241 244 247 249 250 250 252 253 256 259 254 244 240 240 238 237 238 238 238 239 238 239 240 240 241 242 242 243 244 244 246 245 244 244 240 236 229 216 206 203 203 203 206 210 212 214 212 209 208 207
235 236 235 235 235 236 237 238 238 238 238 239 240 240 239 238 237 237 237 236 235 236 237 239 241 244 246 248 248 248 249 251 253 256 250 242 239 239 238 236 236 236 237 238 237 237 239 239 240 241 240 242 243 243 245 244 244 244 241 236 226 212 204 202 202 202 205 207 206 208 210 206 203 204
232 232 233 233 233 233 234 235 236 236 236 237 238 238 238 237 236 235 236 235 234 235 236 238 241 243 245 247 246 246 247 249 251 252 248 241 238 238 237 235 235 235 235 236 236 236 238 239 240 240 240 241 242 242 243 243 244 244 242 236 224 210 203 202 201 201 203 206 204 201 204 206 202 201
229 229 230 230 230 230 231 233 234 234 235 235 236 237 236 235 235 234 234 233 233 234 236 237 240 241 244 245 244 244 245 245 247 249 245 239 237 236 235 234 234 234 234 235 235 235 237 238 239 240 240 240 240 241 242 242 243 243 240 234 222 209 203 202 202 201 202 205 207 203 200 201 200 198
227 227 227 227 227 227 229 231 231 232 233 234 234 235 235 234 233 232 231 231 231 233 234 236 239 241 242 243 241 241 242 243 245 247 242 238 236 235 233 232 232 232 233 233 234 235 236 237 238 239 239 239 239 240 242 242 243 242 237 231 221 209 203 201 201 202 202 203 207 208 204 200 199 197
224 224 224 224 224 224 226 228 228 229 231 231 231 233 233 232 232 230 230 229 229 231 233 235 238 240 241 240 239 240 241 241 243 244 239 236 235 233 231 231 230 230 232 232 232 233 234 234 236 237 237 238 239 240 242 242 243 242 235 228 220 211 206 204 202 201 202 203 206 209 208 205 202 201
220 221 221 221 221 221 223 224 225 226 229 229 229 230 231 231 230 229 228 228 228 229 232 234 237 238 238 237 237 238 238 238 240 241 237 234 233 231 229 229 228 229 230 230 229 230 231 231 233 235 236 238 240 241 243 244 243 242 236 227 219 213 209 208 207 205 205 206 206 207 207 207 206 204
217 218 218 219 219 219 219 221 222 224 226 227 226 228 229 229 228 228 227 226 227 228 231 233 235 236 234 233 234 235 235 236 238 238 234 232 231 229 227 227 226 226 227 227 226 227 228 229 232 235 237 240 242 243 245 246 245 243 238 228 219 214 213 213 212 211 211 209 208 207 206 205 205 204
214 214 215 216 217 217 216 217 219 221 223 224 225 226 227 227 227 226 225 225 225 227 229 231 232 232 231 230 232 234 234 234 236 236 232 230 229 227 225 224 224 224 224 225 224 225 227 229 233 237 240 241 242 243 244 245 246 243 238 231 221 216 215 215 215 215 214 212 209 209 209 205 202 201
211 211 212 213 214 214 214 214 217 219 221 222 223 224 225 225 225 224 223 223 224 226 227 228 229 229 228 229 231 233 234 233 234 233 230 228 227 225 223 222 222 222 223 224 224 226 228 232 236 239 241 241 240 241 243 243 245 245 241 233 225 219 216 216 215 215 215 213 210 211 213 210 205 202
208 209 210 211 212 211 211 212 215 217 219 220 222 223 223 223 223 222 222 222 223 224 225 226 226 226 227 228 231 232 231 230 231 230 227 226 225 223 222 222 221 221 222 224 226 227 229 233 237 240 241 240 239 240 242 243 245 246 245 236 228 222 219 216 215 215 215 214 210 209 212 212 209 206
205 207 207 208 209 209 209 210 212 215 217 218 220 221 221 221 221 221 220 220 221 222 222 223 224 225 227 228 230 230 229 228 230 229 226 225 224 222 221 222 221 221 222 224 226 228 230 233 237 240 240 239 238 238 240 243 243 243 245 240 229 224 221 219 217 217 216 215 212 209 210 210 210 210
201 203 204 205 206 206 207 208 211 213 215 217 218 219 219 219 219 219 220 220 220 221 221 222 224 225 226 227 228 227 227 228 228 227 225 224 223 220 220 221 221 220 222 224 225 227 230 233 237 240 240 237 235 235 236 236 236 236 239 240 231 224 221 220 219 219 219 218 216 213 211 211 212 212
197 199 200 202 203 204 204 207 209 212 214 215 216 217 218 218 218 218 219 220 220 220 221 222 223 223 225 226 227 226 226 226 227 225 224 223 221 219 218 220 221 221 222 224 225 227 229 233 236 239 238 233 229 229 229 227 228 230 235 239 233 224 221 219 219 219 220 220 219 217 215 214 214 214
194 196 197 199 201 201 202 205 207 209 212 213 214 215 216 217 217 218 218 218 218 218 219 220 221 222 223 225 225 225 225 225 225 224 223 222 220 218 217 218 220 221 221 223 225 226 227 230 234 236 234 228 223 222 223 224 227 231 235 240 237 224 218 218 218 219 220 221 221 220 218 217 216 216
191 193 195 197 198 200 201 203 205 207 210 211 212 213 213 215 216 217 215 214 215 216 217 218 219 221 222 223 223 224 223 224 224 223 222 222 220 218 217 217 219 220 221 221 223 224 225 228 232 233 229 222 218 219 221 224 229 234 238 242 243 230 216 215 217 218 220 221 223 223 221 220 219 218
189 190 192 194 196 199 200 202 204 206 207 209 210 211 212 213 214 213 211 211 212 213 215 216 218 220 221 221 222 222 222 222 221 221 221 220 219 217 216 216 218 219 219 219 221 222 224 226 229 230 226 220 216 218 222 226 231 238 244 247 248 243 225 214 215 217 219 221 223 224 223 223 222 222
188 189 190 192 195 197 199 201 203 205 206 207 208 208 210 212 211 208 207 207 208 210 212 214 216 218 219 219 220 221 221 220 219 219 219 218 218 217 215 214 216 217 218 218 219 220 222 225 227 227 225 220 216 218 223 227 231 239 248 253 253 250 241 222 214 215 217 220 222 224 225 225 225 225
188 189 190 192 194 196 198 201 203 204 205 206 206 208 209 210 208 206 205 206 207 209 211 213 215 215 216 217 218 218 219 218 218 217 217 216 217 217 214 212 213 215 216 218 218 219 221 223 225 225 224 220 217 218 222 227 231 237 245 253 256 254 249 239 223 216 216 218 221 223 225 225 226 227
187 189 191 193 195 196 198 200 202 204 205 206 206 208 210 210 206 203 203 205 207 209 212 213 214 214 214 215 216 216 217 216 216 215 215 215 216 216 213 211 211 212 214 217 218 218 219 222 223 224 223 220 219 220 223 226 230 235 241 248 254 256 253 247 237 226 220 218 219 221 223 225 226 227
188 190 193 195 196 198 199 201 201 203 205 206 208 209 211 210 205 201 201 203 206 208 211 213 213 213 213 214 214 215 214 214 214 214 213 214 215 214 212 210 210 210 212 214 216 216 218 220 222 223 222 220 219 222 224 226 229 233 238 244 249 253 255 253 247 238 230 224 220 221 222 223 224 226
188 191 194 197 198 200 202 203 204 205 206 208 209 210 210 209 205 202 201 203 205 208 210 211 211 211 211 212 212 212 212 211 211 212 213 213 213 212 209 208 208 209 209 210 212 214 217 218 220 220 220 218 219 222 225 226 228 231 235 240 246 250 253 256 254 248 240 233 227 225 224 223 223 224
190 192 196 198 199 201 204 206 207 208 208 209 210 210 209 207 205 202 202 203 206 209 210 209 208 209 210 210 210 210 209 209 209 211 212 211 210 209 207 206 206 206 207 207 209 213 216 218 218 217 216 216 219 222 225 226 228 231 234 238 243 248 250 253 255 253 248 242 235 231 229 227 225 224
192 195 198 200 201 202 204 207 209 210 210 211 210 209 207 205 203 203 203 205 207 210 210 208 207 207 207 208 208 207 207 207 208 210 210 209 208 207 206 205 204 204 205 205 207 210 214 216 218 217 215 215 219 222 225 227 228 231 233 237 241 245 247 249 250 251 251 249 244 238 234 230 228 227
192 197 201 202 203 203 204 206 209 210 211 210 208 206 205 203 201 202 204 206 208 210 209 208 207 207 206 205 205 205 205 205 207 208 207 206 206 205 204 204 204 203 203 204 206 208 211 213 216 217 217 218 221 224 226 227 229 231 233 235 239 241 244 245 245 246 248 249 249 246 242 237 235 232
188 195 200 203 203 202 201 202 205 207 208 208 205 203 202 201 200 201 203 206 208 209 209 207 206 206 206 204 203 203 203 204 205 205 204 203 203 204 204 204 204 204 203 203 204 206 208 210 213 215 217 220 224 227 228 229 231 232 233 234 236 238 240 241 241 242 244 245 247 249 248 246 243 240